#timestamp,LO_Frequency,Hit,StdDev 
1624946415.3,286047002.0,N
1624946435.1,286047002.0,N
1624946455.9,286047004.0,Y
1624946475.7,286047000.1,P
1624946495.5,286046999.8,N
1624946515.4,286047002.4,N
1624946535.2,286047002.3,N
1624946555.1,286047002.7,N
1624946556.0,286047002.7,N
1624946575.8,286047000.2,N
1624946595.6,286046999.8,N
1624946615.5,286047000.2,N
1624946635.3,286047000.1,N
1624946655.1,286047002.7,N
1624946675.9,286046999.9,N
1624946695.7,286047001.1,N
1624946715.6,286047001.0,N
1624946735.4,286046999.8,N
1624946755.2,286047002.6,N
1624946775.1,286046999.8,N
1624946776.0,286046999.8,N
1624946795.8,286046999.8,N
1624946815.6,286047002.8,N
1624946835.5,286046999.8,N
1624946855.3,286046999.7,N
1624946875.2,286047000.2,N
1624946895.9,286047002.3,N
1624946915.7,286047002.7,N
1624946935.6,286046999.8,N
1624946955.4,286046999.8,N
1624946975.2,286047000.1,N
1624946995.1,286047000.2,N
1624946996.0,286047000.2,N
1624947015.8,286047000.0,N
1624947035.7,286046999.8,N
1624947055.5,286047000.0,N
1624947075.3,286047000.7,N
1624947095.2,286047001.0,N
1624947115.9,286046998.7,N
1624947135.7,286046999.3,N
1624947155.6,286046999.2,N
1624947175.4,286046999.2,N
1624947195.3,286046997.3,N
1624947215.1,286046996.9,N
1624947216.0,286046996.9,N
1624947235.8,286046996.8,N
1624947255.7,286046997.1,N
1624947275.5,286046997.7,N
1624947295.3,286046995.4,N
1624947315.2,286046995.1,N
1624947335.0,286046996.2,N
1624947335.9,286046996.2,N
1624947355.8,286046993.8,Y
1624947375.6,286046998.0,P
1624947395.4,286046995.0,P
1624947415.3,286046997.6,N
1624947435.1,286046998.0,N
1624947455.8,286046995.3,Y
1624947475.7,286046998.6,P
1624947495.5,286046998.2,P
1624947515.4,286047001.0,N
1624947535.2,286047000.9,N
1624947555.0,286047001.0,N
1624947555.9,286047001.0,N
1624947575.8,286046998.1,N
1624947595.6,286047000.7,N
1624947615.5,286047000.7,N
1624947635.3,286046998.2,N
1624947655.1,286046998.8,N
1624947675.9,286046999.5,N
1624947695.7,286046996.9,N
1624947715.5,286046999.6,N
1624947735.4,286046996.8,N
1624947755.2,286046997.3,N
1624947775.1,286046999.6,N
1624947776.0,286046999.6,N
1624947795.8,286046996.7,N
1624947815.6,286046997.7,N
1624947835.5,286046997.7,N
1624947855.3,286046997.2,N
1624947875.1,286046997.2,N
1624947895.9,286046997.7,N
1624947915.7,286046998.0,N
1624947935.5,286046997.3,N
1624947955.4,286046996.9,N
1624947975.2,286046997.7,N
1624947995.1,286046997.4,N
1624947996.0,286046997.4,N
1624948015.8,286046997.4,N
1624948035.6,286046997.6,N
1624948055.5,286046996.8,N
1624948075.3,286046996.8,N
1624948095.1,286046996.7,N
1624948115.9,286046999.6,N
1624948135.7,286046999.5,N
1624948155.6,286046999.2,N
1624948175.4,286046997.0,N
1624948195.2,286046997.0,N
1624948215.1,286046996.9,Y
1624948216.0,286046996.9,P
1624948235.8,286047001.1,N
1624948255.7,286047000.3,N
1624948275.5,286047001.0,N
1624948295.3,286047000.1,N
1624948315.2,286047002.8,N
1624948335.9,286046999.7,N
1624948355.7,286047002.4,N
1624948375.6,286047002.7,N
1624948395.4,286047002.7,N
1624948415.2,286047002.0,N
1624948435.1,286047004.4,N
1624948436.0,286047004.4,N
1624948455.8,286047004.0,N
1624948475.7,286047004.4,N
1624948495.5,286047001.4,N
1624948545.4,286047003.3,E
1624948555.3,286047002.0,N
1624948575.1,286047000.7,P
1624948595.9,286047000.7,N
1624948615.7,286047000.7,N
1624948635.5,286046998.5,N
1624948655.4,286047001.0,N
1624948675.2,286047000.5,N
1624948695.0,286046999.9,N
1624948695.9,286046999.9,N
1624948715.8,286047002.1,N
1624948735.6,286047002.7,N
1624948755.5,286047000.1,N
1624948775.3,286047000.2,N
1624948795.1,286047000.3,N
1624948815.9,286046999.8,N
1624948835.7,286047000.4,N
1624948855.5,286047000.3,N
1624948875.4,286047000.7,N
1624948895.2,286047002.4,N
1624948915.1,286046999.9,N
1624948916.0,286046999.9,N
1624948935.8,286047000.7,N
1624948955.6,286047000.9,N
1624948975.5,286047000.0,N
1624948995.3,286047000.5,N
1624949015.1,286047000.3,N
1624949035.9,286046999.7,N
1624949055.7,286047002.1,N
1624949075.6,286047002.5,N
1624949095.4,286047002.4,N
1624949115.2,286047000.4,N
1624949135.1,286047000.1,N
1624949136.0,286047000.1,N
1624949155.8,286047002.3,N
1624949175.7,286047001.8,N
1624949195.5,286047002.5,N
1624949215.3,286047002.6,N
1624949235.2,286046999.7,N
1624949255.0,286047001.4,N
1624949255.9,286047001.4,N
1624949275.8,286047003.8,Y
1624949295.6,286047002.7,P
1624949315.4,286047001.7,N
1624949335.3,286047001.5,N
1624949355.1,286047001.4,N
1624949375.9,286047002.0,Y
1624949395.7,286047000.8,P
1624949415.5,286047000.8,N
1624949435.4,286047000.8,N
1624949455.2,286047001.2,Y
1624949475.0,286046998.1,P
1624949475.9,286046998.1,N
1624949495.8,286046998.2,N
1624949515.6,286046998.2,N
1624949535.5,286047000.6,N
1624949555.3,286046998.1,N
1624949575.1,286047000.8,N
1624949595.9,286047000.4,N
1624949615.7,286047000.8,N
1624949635.6,286047000.4,N
1624949655.4,286047000.2,N
1624949675.2,286047000.5,N
1624949695.1,286047000.4,N
1624949696.0,286047000.4,N
1624949715.8,286046999.9,N
1624949735.6,286047002.8,N
1624949755.5,286047000.1,N
1624949775.3,286046999.8,N
1624949795.1,286047002.3,N
1624949815.9,286047000.1,N
1624949835.7,286047000.9,N
1624949855.6,286047000.7,N
1624949875.4,286046999.9,N
1624949895.2,286046999.9,N
1624949915.1,286047000.2,N
1624949916.0,286047000.2,N
1624949935.8,286047000.0,N
1624949955.6,286047002.5,N
1624949975.5,286046999.7,N
1624949995.3,286047002.8,N
